Preview of NWS' New Version of Forecast
This preview is not operational and should not be used for support decisions.

Regional Weather Roundup (RWR)

Issued by National Weather Service (NWS)

                            
906 
ASUS44 KMEG 261610
RWRTN 
TENNESSEE HOURLY STATE WEATHER ROUNDUP
NATIONAL WEATHER SERVICE MEMPHIS TN
1100 AM CDT TUE MAR 26 2019

TNZ002-004-019-021-049-052-054-088>092-261700-
WEST TENNESSEE
  
CITY           SKY/WX    TMP DP  RH WIND       PRES   REMARKS
MEMPHIS INTL   PTSUNNY   55  39  54 NE13      30.33R                  
NWS MEMPHIS      N/A     54 N/A N/A MISG        N/A                   
JACKSON        FAIR      52  30  43 N13       30.32S                  
DYERSBURG      FAIR      52  26  36 E13       30.36R                  
SOMERVILLE     SUNNY     54  36  50 N10G16    30.30S                  
COVINGTON      SUNNY     54  34  47 NE15G22   30.34S                  
UNION CITY     SUNNY     50  23  34 NE10G18   30.35S                  
BOLIVAR        SUNNY     54  34  47 NW13      30.29S                  
PARIS          SUNNY     50  19  29 NE15      30.34R                  
HUNTINGDON     SUNNY     50  18  27 NE14      30.32F                  
LEXINGTON      SUNNY     50  27  40 N10G17    30.30S                  
SELMER         SUNNY     52  34  50 NE12      30.27F                  
SAVANNAH       SUNNY     54  36  50 N9G15     30.28S                  
$$

TNZ008-025-027-028-033-062-065-066-261700-
NORTH MIDDLE TENNESSEE
  
CITY           SKY/WX    TMP DP  RH WIND       PRES   REMARKS
NASHVILLE      FAIR      50  23  34 NE10      30.30S                  
DICKSON        SUNNY     46  19  34 NE10      30.29S                  
CLARKSVILLE    FAIR      48  14  25 N10       30.34R                  
LEBANON        SUNNY     48  25  40 N10       30.28S                  
SMYRNA         FAIR      48  27  44 NW12      30.30S                  
MURFREESBORO   SUNNY     48  27  43 N12       30.26S                  
COOKEVILLE     SUNNY     48  32  53 VRB5G16   30.25R                  
LIVINGSTON     SUNNY     43  27  52 NE10      30.25S                  
GALLATIN       SUNNY     48  21  34 N9G17     30.33S                  
CROSSVILLE     CLOUDY    40  33  76 NE7       30.23R                  
ROCKWOOD       CLOUDY    45  37  76 N8        30.21R                  
$$

TNZ061-075-076-078-094-096-097-261700-
SOUTH MIDDLE TENNESSEE
  
CITY           SKY/WX    TMP DP  RH WIND       PRES   REMARKS
LAWRENCEBURG   SUNNY     50  32  50 N14G22    30.25S                  
LEWISBURG      SUNNY     50  32  50 N10G17    30.26R                  
FAYETTEVILLE   MOSUNNY   48  37  66 N13G18    30.23S                  
TULLAHOMA      MOSUNNY   48  37  66 N12       30.23S                  
WINCHESTER     PTSUNNY   48  37  66 NE12G21   30.23S                  
MCMINNVILLE    SUNNY     48  34  57 NE12      30.24S                  
COLUMBIA       SUNNY     50  28  43 NE9       30.25F                  
SHELBYVILLE    SUNNY     48  34  57 N15       30.25F                  
$$

TNZ017-018-042-046-047-261700-
NORTHEAST TENNESSEE
  
CITY           SKY/WX    TMP DP  RH WIND       PRES   REMARKS
TRI CITIES     CLOUDY    45  38  76 NE3       30.22R                  
ELIZABETHTON   CLOUDY    46  41  81 VRB3      30.20R                  
GREENEVILLE    CLOUDY    45  39  81 NE10      30.20R                  
$$

TNZ012-013-036-069-073-074-261700-
CENTRAL EAST TENNESSEE
  
CITY           SKY/WX    TMP DP  RH WIND       PRES   REMARKS
KNOXVILLE      CLOUDY    48  40  73 NE12      30.21R                  
OAK RIDGE      CLOUDY    48  37  65 MISG      30.24R                  
DOWNTOWN KNOXV CLOUDY    48  41  76 NE6       30.23S                  
GATLINBURG     PTSUNNY   46  43  87 NE6       30.22R                  
MORRISTOWN     CLOUDY    46  41  81 E5        30.20S                  
JACKSBORO      MOSUNNY   46  36  66 NE8       30.28R                  
$$

TNZ083-085-099-261700-
SOUTHEAST TENNESSEE
  
CITY           SKY/WX    TMP DP  RH WIND       PRES   REMARKS
CHATTANOOGA    CLOUDY    52  39  61 NE13      30.20R                  
DAYTON         CLOUDY    50  41  71 N10       30.21S                  
$$

SKY/WX REPORTED AS FAIR MEANS FEW OR NO CLOUDS BELOW
12 THOUSAND FEET.